FW8702 Weather Reports


time (UTC)temp
C
wind
direction
speed
KPH
gust
KPH
rain 1hr
cm
rain 24hr
cm
rain mn
cm
humidity
%
barometer
mb
20260504181517 18 206 0.0 0.0 0.00 0.00 0.00 65 1017.1
20260504180012 18 206 0.0 0.0 0.00 0.00 0.00 63 1017.1
20260504174512 19 230 0.0 0.0 0.00 0.00 0.00 61 1017.0
20260504173024 20 230 0.0 0.0 0.00 0.00 0.00 54 1017.2
20260504171555 20 230 0.0 0.0 0.00 0.00 0.00 55 1017.1
20260504081528 17 178 0.0 0.0 0.00 0.00 0.00 68 1019.6
20260504050023 11 237 0.0 0.0 0.00 0.00 0.00 87 1018.5
20260504044555 11 237 0.0 0.0 0.00 0.00 0.00 87 1018.6
20260504043017 11 237 0.0 0.0 0.00 0.00 0.00 86 1018.6
20260504041530 11 237 0.0 0.0 0.00 0.00 0.00 86 1018.5
20260504040030 11 237 0.0 0.0 0.00 0.00 0.00 86 1018.4
20260504034554 11 237 0.0 0.0 0.00 0.00 0.00 86 1018.3
20260504033009 11 237 0.0 0.0 0.00 0.00 0.00 85 1018.2
20260504031547 11 237 0.0 0.0 0.00 0.00 0.00 85 1018.5
20260504030112 11 237 0.0 0.0 0.00 0.00 0.00 83 1018.5
20260504024524 12 237 0.0 0.0 0.00 0.00 0.00 83 1018.5
20260504023018 12 237 0.0 0.0 0.00 0.00 0.00 83 1018.6
20260504021547 12 237 0.0 0.0 0.00 0.00 0.00 82 1018.5
20260504020050 12 237 0.0 0.0 0.00 0.00 0.00 83 1018.5
20260504014512 12 237 0.0 0.0 0.00 0.00 0.00 84 1018.4
20260504013041 12 237 0.0 0.0 0.00 0.00 0.00 83 1018.6
20260504011508 12 237 0.0 0.0 0.00 0.00 0.00 83 1018.5
20260504010008 12 237 0.0 0.0 0.00 0.00 0.00 83 1018.6
20260504004511 12 237 0.0 0.0 0.00 0.00 0.00 83 1018.6
20260504003043 12 237 0.0 0.0 0.00 0.00 0.00 83 1018.9
20260504001554 12 237 0.0 0.0 0.00 0.00 0.00 82 1019.0
20260504000004 12 146 0.0 0.0 0.00 0.00 0.00 82 1019.0
20260503234514 13 146 0.0 0.0 0.00 0.00 0.00 81 1019.2
20260503233043 13 146 0.0 0.0 0.00 0.00 0.00 81 1019.1
20260503231550 13 146 0.0 0.0 0.00 0.00 0.00 81 1019.3
20260503230001 13 146 0.0 0.0 0.00 0.00 0.00 79 1019.4
20260503224601 13 146 0.0 0.0 0.00 0.00 0.00 79 1019.3
20260503223024 13 146 0.0 0.0 0.00 0.00 0.00 78 1019.3
20260503221541 13 146 0.0 0.0 0.00 0.00 0.00 78 1019.3
20260503220043 13 146 0.0 0.0 0.00 0.00 0.00 78 1019.1
20260503214507 14 146 0.0 0.0 0.00 0.00 0.00 75 1019.2
20260503213034 14 146 0.0 0.0 0.00 0.00 0.00 74 1019.1
20260503211606 14 146 0.0 0.0 0.00 0.00 0.00 75 1019.1
20260503210105 14 178 0.0 0.0 0.00 0.00 0.00 76 1019.0
20260503204515 14 178 0.0 0.0 0.00 0.00 0.00 76 1019.0
20260503203045 15 178 0.0 1.6 0.00 0.00 0.00 75 1018.9
20260503201510 15 241 0.0 0.0 0.00 0.00 0.00 74 1018.9
20260503200025 15 241 0.0 0.0 0.00 0.00 0.00 73 1018.8
20260503194520 15 241 0.0 0.0 0.00 0.00 0.00 73 1018.6
20260503193030 16 241 0.0 0.0 0.00 0.00 0.00 73 1018.6
20260503191557 16 241 0.0 0.0 0.00 0.00 0.00 71 1018.4
20260503190038 17 241 0.0 0.0 0.00 0.00 0.00 69 1018.1
20260503184624 18 241 0.0 0.0 0.00 0.00 0.00 69 1017.9
20260503183025 18 241 0.0 0.0 0.00 0.00 0.00 66 1017.8